Temp_Advection
nan nan nan nan nan nan nan nan nan nan nan nan nan nan nan nan nan nan nan nan nan nan nan nan nan nan nan nan nan nan nan nan nan nan nan nan nan nan nan nan nan nan nan nan
nan -0 -0 0 0 -0 -0 0 -0 -0 -0 0 0 0 0 -0 -0 -1 -0 -0 0 0 0 1 0 0 0 0 0 0 0 0 0 0 0 0 -0 0 0 0 0 0 0 nan
nan -0 -0 -0 0 0 -0 -0 -0 -0 -0 0 -0 0 -0 -0 -0 -0 -0 0 0 1 1 0 0 0 0 0 0 0 0 0 0 0 0 0 0 0 -0 -0 0 1 1 nan
nan 0 0 0 0 0 -0 -0 -0 -0 -0 0 0 0 -0 -0 0 0 -0 -0 1 1 0 0 0 0 0 0 0 0 1 1 1 0 0 0 0 0 0 0 -0 0 0 nan
nan 0 1 0 0 0 0 -0 0 0 0 0 0 0 -0 0 0 -0 0 -0 1 1 1 1 1 0 0 0 0 1 1 0 -0 -0 0 0 0 0 0 0 0 0 0 nan
nan -0 -0 0 0 0 -0 0 -0 -0 -0 -0 0 0 -0 -0 -0 0 0 0 1 1 1 0 0 0 0 0 0 0 0 0 0 0 0 0 0 -0 0 0 0 1 0 nan
nan 0 -0 0 0 0 -0 -0 -0 0 0 0 0 0 -1 0 -0 0 -0 -0 1 0 0 0 0 0 0 0 0 0 0 -0 -0 0 -0 -0 -0 0 0 -0 0 0 1 nan
nan -0 -0 0 0 -0 0 -0 -0 0 0 0 0 -0 -0 0 -1 -0 -0 0 0 0 0 0 0 0 0 0 0 0 -0 0 0 -0 -0 -0 0 0 0 0 -0 -0 -0 nan
nan 0 -0 -0 0 0 0 -0 0 -0 -0 0 -0 -0 -0 -0 0 1 1 1 1 0 0 0 0 0 0 0 0 0 0 0 0 -0 -0 -0 -0 -0 -0 -0 -0 -0 -0 nan
nan 0 -0 -0 -0 0 -0 -0 0 0 0 -0 0 -0 -0 0 0 0 0 0 0 0 0 0 0 0 0 0 0 0 0 0 0 0 -0 -0 0 -0 -0 -0 -0 -0 -0 nan
nan -0 0 0 -0 -0 -0 -0 -0 -0 -0 0 -0 -0 0 0 -0 -0 0 -0 -0 -0 -0 0 0 0 0 0 0 0 0 0 0 0 0 -0 -0 -0 -0 -0 -0 -0 -0 nan
nan -0 0 -0 -0 0 0 0 -0 0 0 0 0 -1 0 -0 0 0 -0 -0 0 0 0 0 0 0 0 0 0 0 0 0 -0 0 0 -0 -0 -0 -0 -0 -0 -0 -0 nan
nan 0 0 -0 -0 0 0 -0 0 -0 -0 -0 0 -0 0 -0 0 0 -0 -0 0 0 0 0 0 0 0 0 0 0 0 -0 -0 -0 -0 -0 -0 0 0 0 -0 -0 -0 nan
nan -0 -0 -0 -0 -0 -0 -0 0 0 -0 -0 -1 -0 0 -0 -0 0 -0 0 0 0 0 0 0 0 0 0 0 0 0 -0 -0 0 0 -0 -0 -0 0 0 0 -0 -0 nan
nan 0 0 0 -0 -0 -0 -0 0 0 -0 -0 -0 0 -0 -0 -0 -0 -0 0 0 0 0 0 0 1 0 0 0 0 0 -0 -0 0 0 -0 -0 -0 0 0 0 0 0 nan
nan 0 -0 -0 -0 0 0 0 -0 -0 0 -0 0 -0 -0 0 -0 -0 -0 0 0 0 0 1 1 1 1 1 0 0 0 0 0 0 0 -0 -0 0 0 0 0 0 0 nan
nan -0 0 -0 -0 -0 0 -0 -0 -0 -0 -0 -0 -1 -0 0 -0 -1 -0 -0 0 0 1 1 1 1 1 1 0 0 0 0 0 0 0 -0 0 0 0 0 0 0 0 nan
nan -0 -0 -0 -0 -0 -1 -0 0 0 0 0 -0 0 -0 -0 -0 -0 0 0 1 1 1 1 1 1 1 1 0 0 0 0 -0 -0 0 0 0 0 0 0 0 0 0 nan
nan -0 -0 -0 -0 -1 -0 -0 -0 -0 -0 -0 0 0 -0 0 1 1 0 0 0 0 0 1 1 1 1 1 0 0 0 -0 -0 0 0 0 0 0 0 0 0 0 0 nan
nan -0 -0 -0 -0 -0 -0 -0 -0 -0 0 -0 -0 -0 0 1 0 -0 -1 0 0 0 1 1 1 1 1 0 0 0 -0 -0 0 0 0 0 0 0 0 0 0 0 0 nan
nan -0 -0 -0 -0 -0 -1 -0 0 -0 -0 -0 -0 -1 -1 -0 -1 -1 1 1 0 0 1 1 1 1 0 0 0 0 0 0 0 0 0 0 0 0 0 0 0 -0 -0 nan
nan 0 0 -0 0 -1 -0 -0 -0 -0 0 -0 -0 -0 -1 -1 -0 0 1 0 0 1 1 1 1 0 0 0 0 0 -0 -0 0 0 0 0 0 0 0 -0 -0 -0 -0 nan
nan -0 -0 -0 -0 -0 -0 -0 -0 -0 -0 -0 -0 -0 -0 -0 0 0 0 0 1 1 0 0 0 0 -0 -0 -0 -0 0 0 0 0 0 0 0 0 0 -0 -0 0 0 nan
nan -0 -0 0 -0 -0 -1 -0 0 -0 0 0 0 0 0 0 0 0 0 0 0 0 0 0 -0 -0 -0 0 0 0 0 0 0 -0 -0 0 0 -0 -0 -0 0 0 0 nan
nan 0 0 -0 -0 -0 -0 -0 0 0 0 0 0 0 0 0 0 0 0 0 0 0 0 0 0 0 0 0 0 0 0 -0 -0 -0 -0 -0 -0 -0 0 0 0 0 0 nan
nan nan nan nan nan nan nan nan nan nan nan nan nan nan nan nan nan nan nan nan nan nan nan nan nan nan nan nan nan nan nan nan nan nan nan nan nan nan nan nan nan nan nan nan
Wind_Speed
13 5 13 5 6 5 7 1 5 5 5 5 7 4 10 17 11 12 18 19 17 14 18 17 18 19 19 19 18 17 17 18 19 20 20 21 21 23 27 31 28 26 25 25
5 8 5 8 6 5 7 6 4 2 4 4 6 14 9 14 9 13 16 20 20 13 11 15 19 19 19 20 21 22 21 19 20 22 22 23 22 23 23 23 25 27 27 28
8 7 9 8 7 6 1 5 3 4 2 2 4 6 9 9 10 18 20 21 21 17 16 16 15 16 18 20 21 23 23 24 25 22 22 22 22 24 25 28 29 27 24 24
4 5 10 7 8 5 5 4 6 2 3 4 4 5 6 9 15 10 23 25 22 18 17 16 14 13 14 15 17 21 24 27 30 30 29 29 29 28 28 25 27 29 30 28
2 4 13 7 5 5 5 3 5 2 5 3 1 1 6 3 9 16 16 24 21 20 18 15 12 10 10 9 11 13 13 14 18 25 29 30 30 29 28 27 25 22 20 22
3 3 3 3 2 3 3 2 6 4 4 2 5 5 5 6 8 8 8 22 21 21 18 14 10 10 10 9 8 8 9 9 9 10 11 13 15 19 24 28 30 30 29 26
3 3 1 2 5 4 2 4 2 2 4 5 3 5 15 6 7 7 10 22 23 24 21 16 14 13 10 8 8 8 9 10 11 11 11 11 12 12 13 14 16 17 21 21
4 3 3 2 1 5 3 3 4 5 4 4 2 8 7 5 13 16 26 31 26 25 20 17 14 11 10 10 9 10 11 13 14 14 14 14 15 15 15 15 14 14 15 18
4 1 2 2 2 3 4 6 2 2 3 3 5 7 9 2 2 13 23 27 26 24 20 17 14 11 10 10 11 10 11 12 13 14 14 14 14 15 16 17 17 17 17 18
7 4 4 3 1 0 3 2 2 3 3 3 4 5 6 3 8 11 14 19 25 22 19 15 12 10 9 10 9 9 9 9 10 11 11 11 12 12 13 13 14 14 15 16
5 4 4 5 7 9 5 4 6 3 4 4 3 5 5 10 12 15 15 25 27 22 18 15 12 10 9 8 8 8 8 8 8 8 8 9 9 10 11 11 12 13 14 15
7 5 4 2 4 7 7 5 4 4 4 2 3 5 5 7 7 14 17 25 23 21 18 15 12 10 9 8 8 8 8 8 8 8 9 9 10 11 12 12 12 12 13 14
6 0 3 1 1 3 4 5 5 2 3 5 5 5 4 3 9 15 19 21 23 20 17 15 14 12 10 9 9 9 8 8 8 8 8 9 9 9 10 9 9 10 11 10
3 4 6 7 5 5 5 7 12 8 4 3 5 4 2 4 8 11 19 22 23 22 19 16 15 14 12 10 10 10 10 9 9 8 9 9 9 10 10 9 8 6 4 2
4 5 4 5 4 4 5 6 10 10 11 8 7 7 6 10 10 19 25 22 22 21 20 18 17 16 15 13 11 11 11 10 9 9 9 10 10 10 8 8 6 4 2 1
2 2 2 3 4 4 3 7 9 12 5 7 5 5 7 13 11 14 21 20 22 24 22 20 18 18 18 16 13 13 12 10 10 9 9 9 9 7 5 3 3 4 4 5
3 4 3 4 1 3 6 13 15 7 7 13 9 13 2 6 14 19 21 24 25 24 23 21 20 18 18 17 15 13 12 12 11 10 10 9 7 5 4 4 6 7 7 7
5 5 2 1 3 2 6 3 5 15 7 10 4 6 8 9 16 25 21 23 22 21 19 19 17 17 17 16 15 14 13 12 12 11 10 8 6 6 7 8 8 9 9 9
4 4 2 3 3 7 4 4 6 7 8 14 15 8 10 6 11 9 17 16 15 15 13 13 14 16 17 16 15 14 13 12 11 10 9 8 8 8 10 11 11 10 10 8
4 3 4 2 1 5 4 1 4 4 5 6 16 9 8 13 5 4 17 16 15 14 12 12 13 15 16 15 15 13 12 11 10 10 10 10 10 11 13 13 11 10 8 7
3 2 5 5 4 7 7 4 7 3 4 2 15 21 19 5 9 12 13 18 15 13 12 12 13 14 14 14 14 13 11 10 9 10 12 12 13 14 14 12 10 8 6 5
6 6 3 3 4 8 4 3 5 3 1 2 5 14 20 16 11 10 12 17 16 14 13 12 12 14 14 15 15 13 12 11 12 14 14 16 16 14 12 11 9 7 4 2
4 6 5 7 5 5 9 4 8 7 4 1 4 9 10 12 11 12 15 16 16 14 13 12 11 11 13 13 13 13 13 13 15 16 17 16 15 14 12 10 8 6 4 3
4 6 3 2 5 7 12 12 7 8 5 3 2 6 7 6 6 10 13 16 16 16 14 12 12 10 12 13 13 13 13 16 17 18 18 17 15 14 12 11 9 7 6 4
5 8 6 4 5 6 8 14 14 12 8 7 6 5 5 6 9 11 12 13 16 17 17 14 12 11 11 13 14 15 16 19 20 18 17 16 15 14 12 11 9 8 7 7
7 6 5 5 9 6 10 11 17 15 12 10 8 7 6 6 7 9 11 11 14 17 18 17 16 15 14 14 14 16 19 20 19 19 18 17 15 14 13 12 11 10 9 8
Wind_Direction
186 171 193 159 129 139 114 146 180 196 183 152 212 240 249 262 278 250 230 229 235 247 246 245 210 212 219 224 226 222 223 229 230 229 231 235 237 241 244 245 250 253 261 261
156 195 149 132 169 118 165 175 233 302 261 180 204 234 228 251 238 241 227 224 227 220 216 210 207 214 224 230 232 234 235 235 237 241 240 241 246 250 253 252 251 254 257 260
166 156 143 146 184 177 179 161 208 187 53 198 120 276 244 249 241 245 245 231 222 218 202 199 207 218 224 230 236 239 242 244 245 240 241 244 245 247 251 255 258 261 262 261
95 139 157 163 183 128 216 217 206 154 125 213 149 268 251 221 237 234 242 235 228 194 189 200 211 221 229 238 246 251 253 251 247 247 248 248 251 257 262 264 263 261 259 259
173 152 164 167 171 145 225 329 201 202 159 134 233 235 263 196 226 232 216 215 204 192 196 193 197 220 243 237 235 238 238 242 246 248 250 253 253 253 255 260 262 261 258 255
51 62 48 94 91 71 283 68 57 60 53 295 200 178 252 211 221 213 194 200 190 179 175 179 187 198 204 205 212 218 228 233 236 239 245 251 254 255 256 258 261 262 261 259
55 8 4 97 87 26 42 66 72 190 212 226 205 183 244 244 247 212 179 183 172 172 167 175 189 197 206 217 227 235 241 251 257 258 258 259 260 261 262 261 259 262 258 257
152 165 155 72 141 162 155 128 160 200 200 232 182 225 246 246 269 229 189 171 166 167 171 178 186 207 228 241 251 256 256 255 259 263 266 265 266 268 271 271 272 269 267 261
128 147 118 243 87 175 175 204 225 115 355 68 223 291 308 62 152 150 156 165 166 166 171 183 198 215 234 254 264 264 261 260 265 270 272 273 272 273 273 273 272 270 268 267
184 121 223 151 27 103 179 102 171 278 148 258 267 268 238 218 181 167 165 160 168 170 174 189 204 221 241 257 263 268 268 267 269 272 272 271 270 270 269 268 267 267 267 267
146 104 152 157 212 192 173 219 210 150 143 185 287 263 227 207 184 175 165 164 170 176 187 200 209 224 243 252 259 263 263 264 263 264 267 273 278 279 279 278 276 272 270 269
195 126 163 202 194 215 207 220 213 137 213 193 150 275 323 241 178 165 163 172 178 190 199 207 219 233 242 252 260 260 256 253 253 257 266 274 280 283 281 277 277 278 277 275
175 268 114 31 357 192 219 209 213 68 54 214 152 257 350 104 141 170 166 182 187 192 198 208 220 230 238 252 263 259 256 256 259 266 271 275 282 285 283 281 286 290 283 278
137 160 170 192 206 144 202 186 193 188 193 193 221 276 282 191 169 176 181 185 191 199 207 215 220 228 238 253 262 256 257 258 261 264 268 274 281 284 278 275 278 294 302 286
151 202 205 217 187 168 199 190 182 194 210 202 236 217 218 202 189 190 189 193 198 206 211 220 227 230 234 242 249 249 250 255 260 264 270 274 284 287 281 271 253 252 220 132
21 260 82 302 252 222 250 237 212 222 222 244 217 260 228 219 210 198 201 203 210 214 217 221 227 231 238 242 245 249 251 256 261 263 267 275 285 281 270 237 191 162 147 115
153 132 82 269 24 14 300 228 213 206 203 214 202 220 182 218 200 209 212 214 214 217 219 223 233 239 239 239 245 251 250 253 256 258 263 273 271 245 207 177 164 152 131 119
144 124 119 205 39 303 243 285 212 216 224 209 209 174 212 230 213 216 217 209 217 221 228 230 232 234 232 232 235 242 242 247 255 256 255 257 231 206 178 158 153 141 133 124
168 144 135 166 208 285 260 207 175 170 261 208 211 194 219 222 188 204 204 214 231 230 232 239 241 237 231 231 236 235 240 247 249 244 239 220 196 179 164 156 145 136 130 121
142 140 138 144 192 245 260 235 192 140 285 198 196 191 178 159 176 229 210 219 218 219 231 238 230 227 229 231 230 231 244 252 242 230 210 190 178 166 154 148 143 137 130 116
137 83 202 213 246 281 251 218 152 134 248 266 214 201 181 185 211 225 222 205 207 218 223 222 224 228 230 231 232 237 245 250 229 202 188 180 167 158 155 157 152 146 140 131
167 175 180 169 212 261 187 105 174 237 112 63 149 186 196 206 211 204 198 197 204 213 210 216 221 224 229 229 232 235 241 248 209 191 185 177 168 163 167 164 163 162 158 165
190 187 182 183 213 248 209 232 245 199 183 204 166 167 188 191 197 193 197 206 212 217 217 218 223 225 220 222 231 241 241 215 195 187 180 173 172 175 177 180 182 189 205 222
238 166 188 124 243 231 224 226 216 212 224 218 187 190 189 205 219 225 223 223 225 226 229 231 229 234 228 228 236 230 211 196 189 182 179 181 185 188 193 196 202 214 227 243
193 145 185 241 280 280 249 233 227 220 222 208 190 192 213 225 226 224 234 235 237 235 234 233 236 237 234 233 230 207 195 189 184 185 189 192 195 201 206 212 220 229 237 247
181 179 169 218 213 216 251 240 226 216 211 208 213 224 239 253 259 253 247 247 244 237 235 232 233 230 229 231 225 208 200 196 191 196 199 201 207 212 215 221 228 236 240 247
Height
1491 1493 1493 1500 1503 1504 1508 1509 1511 1510 1507 1511 1512 1514 1510 1506 1509 1508 1507 1511 1514 1515 1516 1518 1521 1523 1525 1527 1529 1530 1532 1534 1535 1536 1537 1539 1539 1541 1542 1543 1544 1545 1545 1546
1492 1492 1496 1499 1502 1504 1508 1513 1514 1510 1506 1512 1513 1511 1509 1505 1505 1505 1504 1506 1509 1511 1513 1515 1517 1519 1521 1524 1526 1528 1529 1530 1531 1532 1532 1533 1535 1536 1537 1538 1539 1540 1540 1541
1487 1491 1495 1499 1503 1506 1510 1515 1514 1513 1510 1510 1513 1516 1510 1503 1503 1502 1502 1504 1506 1508 1510 1512 1515 1517 1519 1520 1522 1523 1525 1526 1526 1527 1528 1528 1529 1530 1531 1532 1533 1534 1534 1536
1490 1492 1496 1501 1504 1507 1511 1507 1507 1509 1516 1525 1511 1525 1506 1499 1498 1497 1498 1500 1502 1505 1507 1509 1512 1514 1516 1517 1518 1519 1519 1519 1520 1521 1522 1523 1524 1524 1524 1524 1526 1527 1528 1529
1498 1494 1498 1502 1503 1504 1508 1506 1506 1511 1517 1515 1515 1525 1504 1494 1498 1490 1490 1495 1499 1502 1504 1507 1509 1511 1513 1513 1514 1515 1515 1515 1515 1515 1516 1517 1518 1519 1519 1519 1520 1521 1522 1523
1497 1499 1502 1505 1507 1506 1508 1506 1511 1514 1519 1530 1516 1522 1504 1495 1486 1485 1487 1491 1495 1499 1502 1505 1507 1509 1510 1511 1512 1512 1512 1513 1513 1512 1513 1513 1513 1513 1514 1514 1514 1515 1515 1516
1502 1505 1505 1505 1507 1507 1508 1514 1526 1524 1522 1522 1514 1520 1484 1482 1480 1479 1482 1487 1492 1497 1500 1502 1505 1506 1508 1509 1510 1510 1511 1511 1511 1511 1511 1511 1510 1510 1510 1511 1510 1510 1510 1511
1502 1504 1503 1505 1506 1508 1512 1513 1527 1521 1525 1521 1510 1508 1483 1475 1473 1474 1476 1483 1490 1494 1497 1500 1503 1505 1506 1507 1507 1507 1508 1508 1508 1508 1508 1508 1508 1507 1507 1507 1506 1506 1506 1506
1500 1503 1506 1507 1506 1507 1514 1513 1513 1523 1523 1535 1508 1494 1478 1473 1474 1474 1476 1482 1487 1491 1495 1498 1501 1503 1504 1505 1504 1504 1504 1504 1504 1504 1504 1505 1504 1504 1503 1503 1502 1502 1502 1502
1494 1501 1504 1504 1506 1508 1508 1509 1517 1528 1526 1514 1501 1500 1484 1476 1476 1475 1477 1480 1486 1491 1495 1497 1499 1501 1502 1502 1502 1502 1501 1501 1501 1501 1501 1501 1501 1500 1500 1499 1499 1498 1498 1497
1488 1495 1506 1505 1503 1498 1507 1506 1505 1501 1507 1516 1505 1493 1474 1470 1469 1471 1475 1478 1484 1489 1493 1495 1497 1498 1499 1500 1500 1500 1500 1499 1499 1499 1499 1498 1498 1497 1497 1496 1495 1495 1494 1494
1483 1494 1499 1497 1494 1496 1495 1496 1493 1503 1499 1513 1521 1494 1470 1468 1469 1471 1475 1479 1484 1488 1491 1493 1495 1496 1496 1497 1498 1497 1497 1497 1497 1497 1497 1496 1496 1495 1494 1493 1492 1491 1490 1490
1480 1496 1498 1500 1499 1495 1495 1491 1488 1493 1503 1517 1513 1488 1469 1468 1470 1473 1475 1479 1482 1486 1488 1490 1492 1493 1494 1494 1495 1495 1494 1494 1495 1495 1495 1494 1494 1492 1492 1491 1489 1487 1486 1486
1476 1484 1489 1491 1485 1486 1493 1486 1487 1491 1499 1495 1495 1476 1472 1472 1471 1472 1475 1476 1480 1483 1485 1486 1488 1490 1491 1491 1491 1491 1492 1492 1492 1492 1493 1492 1491 1490 1489 1488 1487 1487 1485 1485
1478 1483 1480 1479 1477 1480 1480 1480 1484 1489 1481 1483 1473 1478 1468 1467 1468 1469 1472 1475 1478 1480 1482 1483 1485 1486 1488 1488 1488 1488 1489 1490 1490 1490 1490 1490 1489 1488 1487 1486 1486 1486 1485 1484
1477 1491 1491 1495 1477 1475 1480 1476 1478 1478 1478 1476 1474 1473 1462 1463 1467 1469 1470 1472 1474 1476 1478 1480 1482 1484 1484 1485 1485 1486 1487 1487 1488 1487 1487 1487 1487 1486 1485 1485 1484 1485 1484 1483
1478 1487 1496 1493 1478 1480 1482 1466 1466 1467 1467 1463 1472 1457 1461 1462 1462 1464 1467 1469 1470 1472 1475 1477 1478 1480 1481 1482 1483 1483 1484 1485 1485 1485 1485 1485 1485 1484 1484 1483 1485 1485 1484 1484
1477 1484 1493 1498 1489 1503 1459 1452 1453 1454 1455 1458 1456 1456 1457 1458 1458 1460 1463 1465 1468 1470 1472 1473 1475 1476 1478 1479 1480 1481 1481 1481 1483 1482 1483 1483 1483 1483 1483 1483 1485 1485 1486 1485
1469 1476 1488 1492 1492 1471 1451 1450 1453 1455 1450 1446 1448 1451 1453 1457 1458 1459 1461 1463 1465 1467 1469 1471 1472 1474 1475 1476 1478 1478 1478 1479 1479 1480 1480 1481 1482 1482 1482 1484 1485 1486 1487 1487
1467 1468 1479 1486 1489 1476 1451 1445 1446 1448 1453 1438 1442 1447 1451 1454 1460 1456 1457 1460 1462 1465 1467 1468 1469 1471 1472 1473 1474 1475 1475 1475 1475 1477 1478 1479 1481 1482 1483 1485 1486 1487 1488 1488
1469 1472 1474 1479 1475 1466 1449 1446 1446 1454 1450 1439 1439 1442 1447 1451 1451 1453 1454 1457 1460 1463 1464 1465 1467 1468 1469 1470 1471 1471 1472 1472 1473 1475 1477 1479 1481 1482 1484 1485 1487 1488 1489 1489
1465 1467 1469 1474 1474 1472 1445 1447 1450 1444 1440 1439 1438 1441 1445 1448 1450 1450 1452 1455 1458 1460 1461 1463 1464 1465 1466 1467 1468 1468 1469 1470 1472 1474 1476 1478 1480 1482 1484 1486 1487 1488 1488 1489
1457 1454 1459 1461 1457 1444 1443 1442 1442 1442 1442 1441 1441 1442 1444 1446 1447 1449 1451 1454 1456 1458 1459 1460 1462 1462 1462 1463 1465 1466 1467 1468 1470 1473 1475 1478 1480 1483 1484 1486 1486 1487 1488 1488
1445 1444 1449 1451 1442 1442 1440 1441 1442 1442 1442 1442 1443 1443 1444 1445 1447 1449 1451 1452 1453 1455 1456 1458 1458 1458 1459 1461 1462 1463 1464 1467 1470 1473 1475 1478 1480 1482 1483 1484 1485 1486 1487 1487
1438 1439 1443 1445 1440 1439 1438 1439 1439 1440 1441 1442 1443 1444 1445 1446 1447 1448 1448 1449 1450 1452 1453 1454 1455 1456 1457 1458 1460 1461 1463 1466 1469 1472 1474 1477 1479 1481 1482 1484 1484 1485 1485 1485
1429 1433 1439 1439 1433 1434 1434 1435 1436 1438 1440 1441 1442 1443 1444 1445 1446 1446 1446 1447 1448 1449 1450 1451 1453 1454 1454 1456 1457 1459 1461 1464 1466 1469 1472 1475 1477 1479 1480 1481 1483 1483 1483 1483